Home   Weather   Herzliya   Past weeks

Flag for Israel Past Weather in Herzliya, Israel — Yesterday and Last 2 Weeks

Now
79 °F

Passing clouds.


Feels Like: 80 °F
Forecast: 74 / 81 °F
Wind: 8 mph from Northwest

Location: Dov Airport

Current Time: Sep 26, 2016 at 8:31:43 PM

Latest Report: Sep 26, 2016 at 7:50 PM


Visibility: N/A

Pressure: 29.92 "Hg

Humidity: 51%

Dew Point: 59 °F

Location of HerzliyaLocation

Past Weather in Herzliya — Graph

°F

Herzliya Temperature Yesterday

Maximum temperature yesterday: 86 °F (at 12:50 PM)
Minimum temperature yesterday: 72 °F (at 5:50 AM)
Average temperature yesterday: 81 °F

High & Low Weather Summary for the Past Weeks

 TemperatureHumidityPressure
High88 °F (Sep 15, 1:50 PM)89% (Sep 21, 5:00 AM)29.98 "Hg (Sep 21, 5:00 AM)
Low72 °F (Sep 25, 5:50 AM)22% (Sep 25, 9:50 AM)29.74 "Hg (Sep 25, 2:50 PM)
Average82 °F63%29.88 "Hg
* Reported Sep 11 6:50 PM — Sep 26 6:50 PM, Herzliya, Weather by CustomWeather, © 2016

Note: Actual official high and low records may vary slightly from our data, if they occured in-between our weather recording intervals... More about our weather records

Advertising

Herzliya Weather History for the Previous 24 Hours

Scroll right to see more
 ConditionsComfort  
Time TempWeatherWind HumidityBarometerVisibility
6:50 PM
Mon, Sep 26
79 °FPassing clouds.9 mph54%29.89 "HgN/A
5:50 PM81 °FPassing clouds.10 mph48%29.89 "HgN/A
4:50 PM81 °FPassing clouds.12 mph48%29.89 "HgN/A
3:50 PM82 °FPassing clouds.10 mph48%29.89 "HgN/A
2:50 PM82 °FSunny.12 mph45%29.89 "Hg10 mi
1:50 PM82 °FSunny.10 mph45%29.89 "Hg10 mi
12:50 PM82 °FSunny.10 mph45%29.89 "Hg10 mi
11:50 AM82 °FPassing clouds.8 mph45%29.89 "HgN/A
10:50 AM81 °FSunny.7 mph48%29.89 "Hg10 mi
9:50 AM79 °FPartly sunny.7 mph51%29.89 "HgN/A
8:50 AM81 °FPartly sunny.6 mph48%29.89 "HgN/A
7:50 AM79 °FScattered clouds.6 mph51%29.86 "HgN/A
6:50 AM77 °FScattered clouds.8 mph54%29.86 "HgN/A
5:50 AM77 °FPassing clouds.9 mph57%29.86 "HgN/A
10:50 PM
Sun, Sep 25
79 °FPassing clouds.12 mph58%29.83 "HgN/A
9:50 PM79 °FClear.14 mph54%29.83 "Hg10 mi
8:50 PM81 °FClear.14 mph51%29.83 "Hg10 mi
Weather by CustomWeather, © 2016

See weather overviewHow to use our weather pages